Weather History for Pipestone, MN

Change the Weather History Date:

Saturday, February 2, 2013

  Actual Average Record
Temperature  
Mean Temperature 18 °F -  
Max Temperature 30 °F 26 °F 44 °F (2005)
Min Temperature 6 °F 10 °F -18 °F (2001)
Degree Days  
Heating Degree Days 47    
Moisture  
Dew Point 12 °F    
Average Humidity 86    
Maximum Humidity 100    
Minimum Humidity 74    
Precipitation  
Precipitation 0.00 in - - ()
Sea Level Pressure  
Sea Level Pressure 30.02 in    
Wind  
Wind Speed 8 mph (WNW)    
Max Wind Speed 29 mph    
Max Gust Speed 41 mph    
Visibility 7 miles    
Events Snow    
Averages and records for this station are not official NWS values.
T = Trace of Precipitation, MM = Missing Value Source: NWS Daily Summary

Daily Weather History Graph

Daily Weather History Graph

Search for Another Location

Airport:

Trip Planner

Search our weather history database for the weather conditions in past years. The results will help you decide how hot, cold, wet, or windy it might be!

Date:

Astronomy

Feb. 02, 2013 Rise Set
Actual Time 7:41 AM CST 5:37 PM CST
Civil Twilight 7:10 AM CST 6:07 PM CST
Nautical Twilight 6:36 AM CST 6:42 PM CST
Astronomical Twilight 6:02 AM CST 7:16 PM CST
Moon No Moon Rise 10:36 AM CST (2/2)
Length of Visible Light 10h 57m
Length of Day
9h 56m
Waning Gibbous, 59% of the Moon is Illuminated
Feb 2
Waning Gibbous
Feb 3
Last Quarter
Feb 10
New
Feb 17
First Quarter
Feb 25
Full

Hourly Weather History & Observations

Time (CST) Temp. Windchill Dew Point Humidity Pressure Visibility Wind Dir Wind Speed Gust Speed Precip Events Conditions
12:13 AM 14.0 °F 2.9 °F 10.4 °F 86% 30.01 in 10.0 mi North 8.1 mph - N/A Snow Light Snow
12:54 AM 12.2 °F 2.9 °F 10.4 °F 92% 30.02 in 10.0 mi North 5.8 mph - N/A Snow Light Snow
1:13 AM 12.2 °F -0.2 °F 8.6 °F 85% 30.02 in 10.0 mi North 9.2 mph - N/A Snow Light Snow
1:53 AM 12.2 °F -0.2 °F 8.6 °F 85% 30.03 in 10.0 mi North 9.2 mph - N/A   Scattered Clouds
2:13 AM 10.4 °F 2.2 °F 8.6 °F 92% 30.04 in 10.0 mi North 4.6 mph - N/A   Scattered Clouds
2:34 AM 10.4 °F 0.8 °F 6.8 °F 85% 30.04 in 10.0 mi North 5.8 mph - N/A   Clear
2:53 AM 10.4 °F -1.5 °F 6.8 °F 85% 30.05 in 10.0 mi North 8.1 mph - N/A   Clear
3:13 AM 10.4 °F -1.5 °F 6.8 °F 85% 30.05 in 10.0 mi NNW 8.1 mph - N/A   Clear
3:34 AM 8.6 °F -3.7 °F 5.0 °F 85% 30.05 in 10.0 mi NNW 8.1 mph - N/A   Clear
3:53 AM 8.6 °F 2.0 °F 6.8 °F 92% 30.06 in 10.0 mi NW 3.5 mph - N/A   Clear
4:13 AM 8.6 °F -2.6 °F 5.0 °F 85% 30.06 in 10.0 mi NNW 6.9 mph - N/A   Clear
4:34 AM 8.6 °F -2.6 °F 5.0 °F 85% 30.06 in 10.0 mi NNW 6.9 mph - N/A   Clear
4:53 AM 8.6 °F -1.3 °F 5.0 °F 85% 30.08 in 10.0 mi NW 5.8 mph - N/A   Clear
5:14 AM 8.6 °F 0.1 °F 3.2 °F 79% 30.08 in 10.0 mi NNW 4.6 mph - N/A   Clear
5:33 AM 6.8 °F -0.1 °F 3.2 °F 85% 30.08 in 10.0 mi NW 3.5 mph - N/A   Clear
5:53 AM 6.8 °F -0.1 °F 3.2 °F 85% 30.09 in 10.0 mi North 3.5 mph - N/A   Mostly Cloudy
6:14 AM 6.8 °F - 3.2 °F 85% 30.08 in 10.0 mi Calm Calm - N/A   Overcast
6:33 AM 8.6 °F -1.3 °F 3.2 °F 79% 30.09 in 10.0 mi NW 5.8 mph - N/A Snow Light Snow
6:53 AM 8.6 °F 0.1 °F 3.2 °F 79% 30.08 in 7.0 mi NNW 4.6 mph - N/A Snow Light Snow
7:13 AM 8.6 °F - 5.0 °F 85% 30.08 in 10.0 mi Calm Calm - N/A Snow Light Snow
7:33 AM 8.6 °F - 3.2 °F 79% 30.08 in 10.0 mi Calm Calm - N/A Snow Light Snow
7:53 AM 8.6 °F - 3.2 °F 79% 30.08 in 10.0 mi Calm Calm - N/A Snow Light Snow
8:13 AM 8.6 °F - 3.2 °F 79% 30.09 in 4.0 mi Calm Calm - N/A   Overcast
8:34 AM 8.6 °F - 3.2 °F 79% 30.09 in 7.0 mi Calm Calm - N/A Snow Light Snow
8:53 AM 8.6 °F - 5.0 °F 85% 30.10 in 3.0 mi Calm Calm - N/A Snow Light Snow
9:13 AM 8.6 °F - 5.0 °F 85% 30.10 in 3.0 mi Calm Calm - N/A Snow Light Snow
9:33 AM 8.6 °F - 6.8 °F 92% 30.09 in 2.5 mi Calm Calm - N/A Snow Light Snow
9:53 AM 10.4 °F - 6.8 °F 85% 30.08 in 3.0 mi Calm Calm - N/A Snow Light Snow
10:13 AM 10.4 °F 4.0 °F 8.6 °F 92% 30.08 in 4.0 mi SSW 3.5 mph - N/A Snow Light Snow
10:53 AM 14.0 °F 5.1 °F 10.4 °F 86% 30.08 in 4.0 mi SW 5.8 mph - N/A Snow Light Snow
11:14 AM 15.8 °F 10.2 °F 10.4 °F 79% 30.07 in 3.0 mi WSW 3.5 mph - N/A Snow Light Snow
11:33 AM 15.8 °F 8.6 °F 12.2 °F 86% 30.07 in 2.0 mi West 4.6 mph - N/A Snow Light Snow
11:53 AM 17.6 °F 8.2 °F 12.2 °F 79% 30.06 in 3.0 mi WSW 6.9 mph - N/A Snow Light Snow
12:14 PM 17.6 °F 8.2 °F 12.2 °F 79% 30.06 in 4.0 mi West 6.9 mph - N/A Snow Light Snow
12:33 PM 17.6 °F 8.2 °F 12.2 °F 79% 30.03 in 10.0 mi WSW 6.9 mph - N/A Snow Light Snow
12:53 PM 17.6 °F 8.2 °F 12.2 °F 79% 30.02 in 10.0 mi WSW 6.9 mph - N/A Snow Light Snow
1:14 PM 17.6 °F 6.4 °F 12.2 °F 79% 30.01 in 10.0 mi SW 9.2 mph - N/A   Overcast
1:33 PM 17.6 °F 6.4 °F 12.2 °F 79% 30.00 in 10.0 mi SW 9.2 mph - N/A   Overcast
1:53 PM 17.6 °F 5.7 °F 14.0 °F 86% 29.99 in 10.0 mi SW 10.4 mph - N/A   Overcast
2:13 PM 17.6 °F 5.7 °F 15.8 °F 93% 29.97 in 7.0 mi SW 10.4 mph - N/A   Overcast
2:33 PM 17.6 °F 5.7 °F 15.8 °F 93% 29.97 in 7.0 mi SW 10.4 mph - N/A   Overcast
2:54 PM 17.6 °F 6.4 °F 15.8 °F 93% 29.96 in 5.0 mi SW 9.2 mph - N/A   Overcast
3:13 PM 19.4 °F 7.9 °F 15.8 °F 86% 29.95 in 1.0 mi SW 10.4 mph - N/A Snow Light Snow
3:33 PM 19.4 °F 7.9 °F 17.6 °F 93% 29.95 in 0.5 mi SW 10.4 mph - N/A Snow Snow
3:53 PM 19.4 °F 7.2 °F 17.6 °F 93% 29.94 in 1.0 mi SW 11.5 mph - N/A Snow Light Snow
4:13 PM 19.4 °F 6.6 °F 17.6 °F 93% 29.93 in 0.8 mi SW 12.7 mph - N/A Snow Light Snow
4:33 PM 21.2 °F 10.1 °F 19.4 °F 93% 29.92 in 0.8 mi SW 10.4 mph - N/A Snow Light Snow
4:53 PM 21.2 °F 10.1 °F 19.4 °F 93% 29.93 in 3.0 mi WSW 10.4 mph - N/A Snow Light Snow
5:13 PM 21.2 °F 10.1 °F 21.2 °F 100% 29.92 in 3.0 mi WSW 10.4 mph - N/A Snow Light Snow
5:53 PM 23.0 °F 15.8 °F 21.2 °F 93% 29.91 in 7.0 mi WSW 5.8 mph - N/A   Overcast
6:13 PM 24.8 °F 16.9 °F 23.0 °F 93% 29.91 in 7.0 mi West 6.9 mph - N/A Snow Light Snow
6:53 PM 26.6 °F 15.7 °F 26.6 °F 100% 29.92 in 10.0 mi NW 12.7 mph 18.4 mph N/A   Overcast
7:13 PM 30.2 °F 18.1 °F 26.6 °F 86% 29.92 in 10.0 mi NW 18.4 mph 32.2 mph N/A   Overcast
7:33 PM 30.2 °F 17.4 °F 26.6 °F 86% 29.92 in 7.0 mi NW 20.7 mph 28.8 mph N/A   Overcast
8:13 PM 28.4 °F 13.0 °F 24.8 °F 86% 29.95 in 4.0 mi NNW 28.8 mph 38.0 mph N/A   Overcast
8:33 PM 26.6 °F 10.8 °F 21.2 °F 80% 29.97 in 3.0 mi NNW 27.6 mph 41.4 mph N/A Snow Light Snow
8:53 PM 24.8 °F 10.7 °F 21.2 °F 86% 29.98 in 10.0 mi NNW 19.6 mph 33.4 mph N/A   Overcast
9:14 PM 24.8 °F 9.0 °F 19.4 °F 80% 29.99 in 4.0 mi NNW 25.3 mph 38.0 mph N/A Snow Light Snow
9:33 PM 23.0 °F 10.6 °F 19.4 °F 86% 30.00 in 10.0 mi NNW 13.8 mph 26.5 mph N/A   Overcast
9:53 PM 21.2 °F 7.3 °F 17.6 °F 86% 30.00 in 10.0 mi North 16.1 mph 27.6 mph N/A   Overcast
10:13 PM 21.2 °F 5.2 °F 17.6 °F 86% 30.02 in 10.0 mi NNW 21.9 mph 27.6 mph N/A   Overcast
10:53 PM 19.4 °F 2.1 °F 14.0 °F 80% 30.03 in 10.0 mi NNW 24.2 mph 32.2 mph N/A   Overcast
11:13 PM 19.4 °F 3.6 °F 12.2 °F 74% 30.02 in 10.0 mi NNW 19.6 mph 33.4 mph N/A   Overcast
11:34 PM 17.6 °F -1.0 °F 12.2 °F 79% 30.04 in 7.0 mi NNW 26.5 mph 33.4 mph N/A   Overcast
11:53 PM 17.6 °F 0.9 °F 12.2 °F 79% 30.05 in 10.0 mi NNW 20.7 mph 29.9 mph N/A Snow Light Snow